Kaktovik, AK

5:24 AM AKST on February 22, 2017 (GMT -0900)
Barter Island LRRS

Weather History for PABA - October, 2012

Change the Weather History Date:

Wednesday, October 10, 2012

  Actual Average Record
Temperature  
Mean Temperature 29 °F -  
Max Temperature 28 °F 23 °F 60 °F (2000)
Min Temperature 28 °F 15 °F 1 °F (1996)
Degree Days  
Heating Degree Days 36    
Moisture  
Dew Point 29 °F    
Average Humidity 99    
Maximum Humidity 100    
Minimum Humidity 92    
Precipitation  
Precipitation 0.00 in - - ()
Sea Level Pressure  
Sea Level Pressure 30.54 in    
Wind  
Wind Speed 29 mph (West)    
Max Wind Speed 32 mph    
Max Gust Speed 37 mph    
Visibility 5 miles    
Events Snow    
Averages and records for this station are not official NWS values.
T = Trace of Precipitation, MM = Missing Value Source: NWS Daily Summary

Daily Weather History Graph

Daily Weather History Graph

Search for Another Location

Airport or City:

Trip Planner

Search our weather history database for the weather conditions in past years. The results will help you decide how hot, cold, wet, or windy it might be!

Date:

Astronomy

Oct. 10, 2012 Rise Set
Actual Time 8:29 AM AKDT 6:10 PM AKDT
Civil Twilight 7:27 AM AKDT 7:12 PM AKDT
Nautical Twilight 6:16 AM AKDT 8:23 PM AKDT
Astronomical Twilight 4:59 AM AKDT 9:39 PM AKDT
Moon 12:29 AM AKDT (10/10) 5:33 PM AKDT (10/10)
Length of Visible Light 11h 45m
Length of Day
9h 40m
Waning Crescent, 26% of the Moon is Illuminated
Oct 10
Waning Crescent
Oct 15
New
Oct 21
First Quarter
Oct 29
Full
Nov 6
Last Quarter

Hourly Weather History & Observations

Time (AKDT) Temp. Windchill Dew Point Humidity Pressure Visibility Wind Dir Wind Speed Gust Speed Precip Events Conditions
12:01 AM 30.0 °F 14.7 °F 30.0 °F 100% 30.60 in 10.0 mi West 31.1 mph - 0.00 in Snow Light Snow
1:01 AM 30.0 °F 14.9 °F 30.0 °F 100% 30.60 in 10.0 mi West 29.9 mph 34.5 mph 0.00 in   Overcast
2:01 AM 30.0 °F 15.2 °F 28.9 °F 96% 30.60 in 10.0 mi West 28.8 mph 36.8 mph N/A   Overcast
3:01 AM 30.0 °F 14.9 °F 30.0 °F 100% 30.59 in 10.0 mi West 29.9 mph 34.5 mph N/A   Overcast
4:01 AM 30.0 °F 14.9 °F 30.0 °F 100% 30.58 in 10.0 mi West 29.9 mph 36.8 mph N/A   Overcast
5:01 AM 30.9 °F 15.9 °F 30.9 °F 100% 30.58 in 3.0 mi West 31.1 mph - 0.00 in Snow Light Snow
5:47 AM 30.2 °F 14.7 °F 30.2 °F 100% 30.57 in 1.8 mi West 32.2 mph - 0.00 in Snow Light Snow
6:01 AM 30.2 °F 14.9 °F 30.2 °F 100% 30.57 in 3.0 mi West 31.1 mph 36.8 mph 0.00 in Snow Light Snow
6:36 AM 30.2 °F 15.2 °F 30.2 °F 100% 30.57 in 1.8 mi West 29.9 mph 36.8 mph 0.00 in Snow Light Snow
6:48 AM 30.2 °F 15.2 °F 30.2 °F 100% 30.57 in 4.0 mi West 29.9 mph 34.5 mph 0.00 in Snow Light Snow
7:01 AM 30.2 °F 15.2 °F 30.2 °F 100% 30.57 in 5.0 mi West 29.9 mph - 0.00 in   Overcast
7:10 AM 30.2 °F 16.2 °F 30.2 °F 100% 30.56 in 6.0 mi West 25.3 mph - 0.00 in   Overcast
7:52 AM 30.2 °F 15.7 °F 30.2 °F 100% 30.56 in 7.0 mi West 27.6 mph - 0.00 in   Overcast
8:01 AM 30.2 °F 15.2 °F 30.2 °F 100% 30.57 in 2.0 mi West 29.9 mph 35.7 mph 0.00 in Snow Light Snow
8:09 AM 30.2 °F 15.4 °F 30.2 °F 100% 30.57 in 1.0 mi West 28.8 mph 34.5 mph 0.00 in Snow Light Snow
8:24 AM 30.0 °F 14.5 °F - N/A% 30.56 in 1.0 mi West 32.2 mph - 0.00 in Snow Light Snow
8:36 AM 30.2 °F 14.7 °F - N/A% 30.57 in 0.8 mi West 32.2 mph - 0.00 in Snow Light Snow
8:52 AM 30.2 °F 15.2 °F - N/A% 30.56 in 1.0 mi West 29.9 mph 33.4 mph 0.00 in Snow Light Snow
8:59 AM 30.2 °F 15.2 °F - N/A% 30.56 in 1.8 mi West 29.9 mph 33.4 mph 0.00 in Snow Light Snow
9:01 AM 30.0 °F 14.7 °F - N/A% 30.57 in 1.8 mi West 31.1 mph - 0.00 in Snow Light Snow
9:09 AM 30.2 °F 15.7 °F - N/A% 30.56 in 0.8 mi West 27.6 mph 34.5 mph 0.00 in Snow Light Snow
9:21 AM 30.2 °F 15.4 °F - N/A% 30.57 in 1.2 mi West 28.8 mph 34.5 mph 0.00 in Snow Light Snow
9:58 AM 30.2 °F 15.7 °F - N/A% 30.55 in 2.5 mi West 27.6 mph 31.1 mph 0.00 in Snow Light Snow
10:01 AM 30.0 °F 14.9 °F - N/A% 30.56 in 2.0 mi West 29.9 mph 33.4 mph 0.00 in Snow Light Snow
10:13 AM 30.2 °F 15.4 °F - N/A% 30.56 in 1.5 mi West 28.8 mph 34.5 mph 0.00 in Snow Light Snow
10:33 AM 30.2 °F 16.2 °F - N/A% 30.55 in 2.5 mi West 25.3 mph - 0.00 in Snow Light Snow
10:40 AM 30.2 °F 15.7 °F - N/A% 30.55 in 3.0 mi West 27.6 mph - 0.00 in Snow Light Snow
11:01 AM 30.0 °F 15.7 °F - N/A% 30.55 in 4.0 mi West 26.5 mph - 0.00 in   Overcast
11:38 AM 30.2 °F 15.9 °F - N/A% 30.55 in 1.8 mi West 26.5 mph - 0.00 in Snow Light Snow
11:56 AM 30.2 °F 15.7 °F - N/A% 30.54 in 2.0 mi West 27.6 mph 33.4 mph 0.00 in Snow Light Snow
12:01 PM 30.0 °F 14.9 °F - N/A% 30.55 in 2.0 mi West 29.9 mph 34.5 mph 0.00 in Snow Light Snow
12:12 PM 30.2 °F 15.7 °F - N/A% 30.55 in 1.5 mi West 27.6 mph 33.4 mph 0.00 in Snow Light Snow
12:20 PM 30.2 °F 15.4 °F - N/A% 30.55 in 3.0 mi West 28.8 mph 34.5 mph 0.00 in Snow Light Snow
12:39 PM 30.2 °F 15.4 °F - N/A% 30.55 in 2.0 mi West 28.8 mph - 0.00 in Snow Light Snow
12:47 PM 30.2 °F 15.7 °F - N/A% 30.54 in 1.0 mi West 27.6 mph - 0.00 in Snow Light Snow
12:59 PM 30.2 °F 15.7 °F - N/A% 30.55 in 1.8 mi West 27.6 mph 33.4 mph 0.00 in Snow Light Snow
1:01 PM 30.2 °F 15.2 °F - N/A% 30.54 in 2.0 mi West 29.9 mph 33.4 mph 0.00 in Snow Light Snow
1:07 PM 30.2 °F 14.7 °F - N/A% 30.55 in 1.8 mi West 32.2 mph 35.7 mph 0.00 in Snow Light Snow
1:13 PM 30.0 °F 14.7 °F - N/A% 30.55 in 1.2 mi West 31.1 mph - 0.00 in   Overcast
1:27 PM 30.2 °F 15.4 °F - N/A% 30.54 in 3.0 mi West 28.8 mph 34.5 mph 0.00 in   Overcast
2:01 PM 30.0 °F 14.9 °F - N/A% 30.55 in 4.0 mi West 29.9 mph 35.7 mph 0.00 in   Overcast
2:22 PM 30.2 °F 15.7 °F - N/A% 30.54 in 3.0 mi West 27.6 mph 35.7 mph 0.00 in Snow Light Snow
2:29 PM 30.2 °F 15.7 °F 30.2 °F 100% 30.53 in 2.0 mi West 27.6 mph - 0.00 in Snow Light Snow
2:41 PM 30.2 °F 15.9 °F 30.2 °F 100% 30.53 in 4.0 mi West 26.5 mph - 0.00 in Snow Light Snow
3:01 PM 30.0 °F 14.9 °F 30.0 °F 100% 30.53 in 5.0 mi West 29.9 mph 35.7 mph 0.00 in Snow Light Snow
3:17 PM 30.2 °F 14.7 °F 30.2 °F 100% 30.54 in 6.0 mi West 32.2 mph - 0.00 in   Overcast
4:01 PM 30.0 °F 14.9 °F 30.0 °F 100% 30.53 in 7.0 mi West 29.9 mph 35.7 mph 0.00 in   Mostly Cloudy
5:01 PM 30.0 °F 14.5 °F 30.0 °F 100% 30.53 in 8.0 mi West 32.2 mph - N/A   Scattered Clouds
5:14 PM 30.2 °F 15.7 °F 30.2 °F 100% 30.52 in 6.0 mi West 27.6 mph 34.5 mph N/A   Mostly Cloudy
5:25 PM 30.2 °F 15.7 °F 30.2 °F 100% 30.51 in 6.0 mi West 27.6 mph 35.7 mph N/A   Mostly Cloudy
5:46 PM 28.4 °F 13.0 °F 28.4 °F 100% 30.51 in 7.0 mi West 28.8 mph 33.4 mph N/A   Scattered Clouds
6:01 PM 28.9 °F 14.0 °F 28.9 °F 100% 30.51 in 9.0 mi West 27.6 mph 33.4 mph N/A   Mostly Cloudy
6:13 PM 28.4 °F 13.0 °F 28.4 °F 100% 30.50 in 9.0 mi West 28.8 mph 35.7 mph N/A   Overcast
6:57 PM 28.4 °F 14.1 °F 28.4 °F 100% 30.48 in 10.0 mi West 24.2 mph 28.8 mph N/A   Scattered Clouds
7:01 PM 28.0 °F 13.3 °F 28.0 °F 100% 30.48 in 10.0 mi West 25.3 mph - N/A   Partly Cloudy
8:01 PM 28.0 °F 13.6 °F 28.0 °F 100% 30.47 in 10.0 mi West 24.2 mph - N/A   Partly Cloudy
8:53 PM 28.4 °F 13.5 °F 26.6 °F 93% 30.45 in 10.0 mi West 26.5 mph - N/A   Mostly Cloudy
9:01 PM 28.0 °F 12.5 °F 27.0 °F 96% 30.45 in 10.0 mi West 28.8 mph - N/A   Overcast
10:01 PM 28.0 °F 14.3 °F 27.0 °F 96% 30.43 in 10.0 mi West 21.9 mph 27.6 mph N/A   Clear
11:01 PM 28.0 °F 13.9 °F 26.1 °F 92% 30.41 in 10.0 mi West 23.0 mph 31.1 mph N/A   Clear